Volver al catálogo

COSMOS 931

ActivoMilitarHEO
NORAD 10150·PAYLOAD·🇷🇺 Russia

Lanzado Jul 20, 1977 desde Plesetsk Cosmodrome

Loading…

Próximos Pases (próximas 24 horas)

TLE

ActualizadoSource: Space-Track

Época: Sep 12, 2026, 22:21 UTC

1 10150U 77068A   26255.93172258 -.00000489  00000-0  00000+0 0  9993
2 10150  71.0908  51.7357 5313450 320.1625  10.8584  2.00772784360521

Sigue COSMOS 931 en tiempo real con AllMySat

Download on the App Store